• en Suisse
  • Liste des pays
  • À 7 jours
  • Température de l'eau
  • Carte satellitaire
  • Carte météo
  • Widgets météo
  • user-avatar
    Se connecter

    Météo par heure à Bereznyagi

    Ce jour, 25 Mai, Vendredi

    Heure Température Précipitation Vent Pression Humidité
    00:00 +14°C° 0 mm 4 m/s 748 mmHg 87%
    01:00 +14°C° 0 mm 4 m/s 748 mmHg 87%
    02:00 +13°C° 0 mm 4 m/s 749 mmHg 88%
    03:00 +12°C° 0 mm 4 m/s 749 mmHg 93%
    04:00 +13°C° 0 mm 4 m/s 749 mmHg 93%
    05:00 +13°C° 0 mm 5 m/s 749 mmHg 92%
    06:00 +13°C° 0 mm 6 m/s 750 mmHg 91%
    07:00 +14°C° 0 mm 6 m/s 750 mmHg 86%
    08:00 +16°C° 0 mm 7 m/s 750 mmHg 80%
    09:00 +17°C° 0 mm 7 m/s 751 mmHg 73%
    10:00 +17°C° 0 mm 7 m/s 751 mmHg 69%
    11:00 +17°C° 0 mm 7 m/s 751 mmHg 65%
    12:00 +18°C° 0 mm 7 m/s 751 mmHg 61%
    13:00 +18°C° 0 mm 7 m/s 752 mmHg 58%
    14:00 +18°C° 0 mm 7 m/s 752 mmHg 56%
    15:00 +18°C° 0 mm 7 m/s 752 mmHg 53%
    16:00 +17°C° 0 mm 6 m/s 752 mmHg 56%
    17:00 +17°C° 0 mm 6 m/s 752 mmHg 59%
    18:00 +16°C° 0 mm 5 m/s 752 mmHg 61%
    19:00 +15°C° 0 mm 5 m/s 753 mmHg 63%
    20:00 +13°C° 0 mm 5 m/s 754 mmHg 65%
    21:00 +12°C° 0 mm 4 m/s 754 mmHg 67%
    22:00 +11°C° 0 mm 4 m/s 755 mmHg 67%
    23:00 +10°C° 0 mm 4 m/s 755 mmHg 66%

    Demain, 26 Mai, Samedi

    Heure Température Précipitation Vent Pression Humidité
    00:00 +10°C° 0 mm 4 m/s 756 mmHg 65%
    01:00 +8°C° 0 mm 4 m/s 756 mmHg 67%
    02:00 +7°C° 0 mm 4 m/s 757 mmHg 69%
    03:00 +7°C° 0 mm 3 m/s 757 mmHg 70%
    04:00 +7°C° 0 mm 3 m/s 758 mmHg 71%
    05:00 +8°C° 0 mm 3 m/s 758 mmHg 71%
    06:00 +8°C° 0 mm 3 m/s 759 mmHg 72%
    07:00 +8°C° 0 mm 4 m/s 759 mmHg 65%
    08:00 +11°C° 0 mm 4 m/s 760 mmHg 58%
    09:00 +12°C° 0 mm 5 m/s 760 mmHg 52%
    10:00 +13°C° 0 mm 5 m/s 760 mmHg 50%
    11:00 +14°C° 0 mm 5 m/s 760 mmHg 49%
    12:00 +14°C° 0 mm 5 m/s 760 mmHg 47%
    13:00 +15°C° 0 mm 4 m/s 760 mmHg 47%
    14:00 +15°C° 0 mm 4 m/s 760 mmHg 46%
    15:00 +17°C° 0 mm 4 m/s 760 mmHg 46%
    16:00 +17°C° 0 mm 3 m/s 760 mmHg 48%
    17:00 +17°C° 0 mm 3 m/s 760 mmHg 50%
    18:00 +16°C° 0 mm 2 m/s 759 mmHg 52%
    19:00 +15°C° 0 mm 2 m/s 759 mmHg 56%
    20:00 +13°C° 0 mm 2 m/s 760 mmHg 60%
    21:00 +11°C° 0 mm 1 m/s 760 mmHg 64%
    22:00 +11°C° 0 mm 1 m/s 760 mmHg 64%
    23:00 +10°C° 0 mm 1 m/s 760 mmHg 65%

    Après-demain, 27 Mai, Dimanche

    Heure Température Précipitation Vent Pression Humidité
    00:00 +10°C° 0 mm 1 m/s 760 mmHg 66%
    01:00 +9°C° 0 mm 1 m/s 760 mmHg 67%
    02:00 +9°C° 0 mm 1 m/s 760 mmHg 68%
    03:00 +8°C° 0 mm 2 m/s 760 mmHg 69%
    04:00 +8°C° 0 mm 2 m/s 760 mmHg 71%
    05:00 +9°C° 0 mm 2 m/s 760 mmHg 73%
    06:00 +9°C° 0 mm 2 m/s 760 mmHg 74%
    07:00 +12°C° 0 mm 2 m/s 760 mmHg 69%
    08:00 +14°C° 0 mm 2 m/s 760 mmHg 64%
    09:00 +14°C° 0 mm 3 m/s 759 mmHg 59%
    10:00 +16°C° 0 mm 3 m/s 759 mmHg 56%
    11:00 +17°C° 0 mm 3 m/s 759 mmHg 53%
    12:00 +18°C° 0 mm 3 m/s 758 mmHg 50%
    13:00 +19°C° 0 mm 4 m/s 758 mmHg 51%
    14:00 +19°C° 0 mm 4 m/s 757 mmHg 52%
    15:00 +20°C° 0 mm 5 m/s 756 mmHg 52%
    16:00 +19°C° 0 mm 4 m/s 756 mmHg 56%
    17:00 +19°C° 0 mm 4 m/s 755 mmHg 60%
    18:00 +19°C° 0 mm 4 m/s 754 mmHg 64%
    19:00 +17°C° 0 mm 4 m/s 754 mmHg 69%
    20:00 +15°C° 0 mm 4 m/s 754 mmHg 73%
    21:00 +13°C° 0 mm 4 m/s 754 mmHg 77%
    22:00 +13°C° 0 mm 4 m/s 754 mmHg 77%
    23:00 +13°C° 0 mm 4 m/s 754 mmHg 77%

    28 Mai, Lundi

    Heure Température Précipitation Vent Pression Humidité
    00:00 +13°C° 0 mm 4 m/s 754 mmHg 77%
    01:00 +12°C° 0 mm 4 m/s 754 mmHg 80%
    02:00 +12°C° 0 mm 3 m/s 754 mmHg 84%
    03:00 +12°C° 0 mm 3 m/s 755 mmHg 87%
    04:00 +11°C° 0 mm 3 m/s 755 mmHg 86%
    05:00 +11°C° 0 mm 3 m/s 755 mmHg 85%
    06:00 +11°C° 0 mm 3 m/s 755 mmHg 83%
    07:00 +12°C° 0 mm 3 m/s 756 mmHg 76%
    08:00 +14°C° 0 mm 3 m/s 756 mmHg 69%
    09:00 +15°C° 0 mm 4 m/s 757 mmHg 62%
    10:00 +17°C° 0 mm 4 m/s 757 mmHg 58%
    11:00 +17°C° 0 mm 4 m/s 757 mmHg 55%
    12:00 +17°C° 0 mm 5 m/s 757 mmHg 51%
    13:00 +17°C° 0 mm 5 m/s 757 mmHg 50%
    14:00 +17°C° 0 mm 5 m/s 757 mmHg 48%
    15:00 +17°C° 0 mm 5 m/s 757 mmHg 47%
    16:00 +18°C° 0 mm 4 m/s 757 mmHg 50%
    17:00 +18°C° 0 mm 4 m/s 757 mmHg 54%
    18:00 +17°C° 0 mm 3 m/s 757 mmHg 57%
    19:00 +14°C° 0 mm 3 m/s 757 mmHg 60%
    20:00 +13°C° 0 mm 3 m/s 757 mmHg 63%
    21:00 +12°C° 0 mm 2 m/s 757 mmHg 66%
    22:00 +10°C° 0 mm 2 m/s 758 mmHg 66%
    23:00 +9°C° 0 mm 2 m/s 758 mmHg 66%

    29 Mai, Mardi

    Heure Température Précipitation Vent Pression Humidité
    00:00 +9°C° 0 mm 2 m/s 758 mmHg 67%
    01:00 +9°C° 0 mm 1 m/s 758 mmHg 67%
    02:00 +9°C° 0 mm 1 m/s 758 mmHg 68%
    03:00 +8°C° 0 mm 1 m/s 758 mmHg 69%
    04:00 +9°C° 0 mm 1 m/s 758 mmHg 70%
    05:00 +9°C° 0 mm 2 m/s 758 mmHg 70%
    06:00 +9°C° 0 mm 2 m/s 758 mmHg 71%
    07:00 +12°C° 0 mm 2 m/s 758 mmHg 66%
    08:00 +13°C° 0 mm 3 m/s 758 mmHg 61%
    09:00 +16°C° 0 mm 3 m/s 758 mmHg 56%
    10:00 +17°C° 0 mm 3 m/s 758 mmHg 53%
    11:00 +18°C° 0 mm 3 m/s 757 mmHg 51%
    12:00 +20°C° 0 mm 3 m/s 757 mmHg 48%
    13:00 +20°C° 0 mm 4 m/s 756 mmHg 49%
    14:00 +21°C° 0 mm 4 m/s 756 mmHg 49%
    15:00 +21°C° 0 mm 4 m/s 755 mmHg 49%
    16:00 +21°C° 0 mm 3 m/s 755 mmHg 53%
    17:00 +21°C° 0 mm 3 m/s 755 mmHg 57%
    18:00 +21°C° 0 mm 3 m/s 754 mmHg 61%
    19:00 +19°C° 0 mm 3 m/s 754 mmHg 65%
    20:00 +17°C° 0 mm 3 m/s 754 mmHg 68%
    21:00 +14°C° 0 mm 3 m/s 753 mmHg 72%
    22:00 +14°C° 0 mm 3 m/s 753 mmHg 73%
    23:00 +13°C° 0 mm 3 m/s 753 mmHg 73%

    30 Mai, Mercredi

    Heure Température Précipitation Vent Pression Humidité
    00:00 +12°C° 0 mm 3 m/s 752 mmHg 74%
    01:00 +12°C° 0 mm 3 m/s 752 mmHg 75%
    02:00 +12°C° 0 mm 4 m/s 752 mmHg 76%
    03:00 +11°C° 0 mm 4 m/s 751 mmHg 77%
    04:00 +12°C° 0 mm 4 m/s 751 mmHg 78%
    05:00 +12°C° 0 mm 4 m/s 751 mmHg 79%
    06:00 +13°C° 0 mm 4 m/s 750 mmHg 80%
    07:00 +15°C° 0 mm 5 m/s 750 mmHg 78%
    08:00 +17°C° 0 mm 5 m/s 750 mmHg 75%
    09:00 +20°C° 0 mm 6 m/s 749 mmHg 73%
    10:00 +21°C° 0 mm 6 m/s 749 mmHg 68%
    11:00 +22°C° 0 mm 7 m/s 748 mmHg 64%
    12:00 +24°C° 0 mm 7 m/s 748 mmHg 59%
    13:00 +24°C° 0 mm 7 m/s 747 mmHg 59%
    14:00 +24°C° 0 mm 7 m/s 747 mmHg 58%
    15:00 +24°C° 0 mm 7 m/s 746 mmHg 58%
    16:00 +24°C° 0 mm 6 m/s 746 mmHg 61%
    17:00 +25°C° 0 mm 5 m/s 746 mmHg 64%
    18:00 +25°C° 0 mm 4 m/s 745 mmHg 68%
    19:00 +22°C° 0 mm 4 m/s 745 mmHg 72%
    20:00 +21°C° 0 mm 4 m/s 745 mmHg 75%
    21:00 +19°C° 0 mm 4 m/s 745 mmHg 79%
    22:00 +18°C° 0 mm 4 m/s 745 mmHg 81%
    23:00 +18°C° 0 mm 4 m/s 744 mmHg 83%
    Voir plus